Location: ???
(32.3885°N, 98.2106°E)
Time: 05:05:26
(UTC+00:00)

ACS3 Solar Sail - Visible Passes

Search period start: 14 October 2024 00:00
Search period end: 24 October 2024 00:00
Orbit: 960 x 1033 km, 97.5° (Epoch: 13 October)

Date Brightness Start Highest point End Pass type
(mag) Time Alt. Az. Time Alt. Az. Time Alt. Az.
14 Oct 2.8 12:33:27 27° NE 12:33:27 27° NE 12:37:33 10° NNE visible
14 Oct 3.6 14:18:34 26° NW 14:18:34 26° NW 14:21:40 10° NNW visible
15 Oct 2.5 13:05:04 40° NNE 13:05:04 40° NNE 13:09:16 10° N visible
15 Oct 4.4 14:50:10 14° WNW 14:50:10 14° WNW 14:51:36 10° NW visible
16 Oct 3.5 11:51:34 13° ENE 11:51:34 13° ENE 11:53:52 10° NE visible
16 Oct 2.8 13:36:41 40° NNW 13:36:41 40° NNW 13:40:33 10° NNW visible
17 Oct 3.0 12:23:13 23° NE 12:23:13 23° NE 12:26:50 10° NNE visible
17 Oct 3.5 14:08:20 27° NW 14:08:20 27° NW 14:11:23 10° NNW visible
18 Oct 2.7 12:54:52 35° NNE 12:54:52 35° NNE 12:58:44 10° N visible
18 Oct 4.3 14:39:59 16° NW 14:39:59 16° NW 14:41:34 10° NW visible
19 Oct 3.6 11:41:24 11° ENE 11:41:24 11° ENE 11:42:18 10° NE visible
19 Oct 2.8 13:26:31 37° N 13:26:31 37° N 13:30:08 10° N visible
20 Oct 3.2 12:13:04 20° NE 12:13:04 20° NE 12:16:09 10° NNE visible
20 Oct 3.5 13:58:12 28° NW 13:58:12 28° NW 14:01:07 10° NNW visible
21 Oct 2.8 12:44:45 30° NNE 12:44:45 30° NNE 12:48:15 10° N visible
21 Oct 4.2 14:29:53 17° NW 14:29:53 17° NW 14:31:32 10° NW visible
22 Oct 2.9 13:16:26 34° N 13:16:26 34° N 13:19:48 10° N visible
23 Oct 3.3 12:03:01 17° NE 12:03:01 17° NE 12:05:29 10° NNE visible
23 Oct 3.4 13:48:08 27° NNW 13:48:08 27° NNW 13:50:55 10° NNW visible
